| time (UTC) | temp F | wind direction | speed MPH | gust MPH | rain 1hr in | rain 24hr in | rain mn in | humidity % | barometer mb |
| 20260506202538 | 64 | 246 | 2.0 | 2.0 | 0.00 | 0.18 | 0.18 | 93 | 1008.9 |
| 20260506202034 | 64 | 211 | 6.0 | 7.0 | 0.00 | 0.18 | 0.18 | 93 | 1008.7 |
| 20260506201532 | 65 | 236 | 3.0 | 5.0 | 0.00 | 0.18 | 0.18 | 93 | 1008.7 |
| 20260506201028 | 64 | 229 | 3.0 | 3.0 | 0.00 | 0.18 | 0.18 | 94 | 1008.4 |
| 20260506200524 | 64 | 281 | 3.0 | 5.0 | 0.00 | 0.18 | 0.18 | 95 | 1008.8 |
| 20260506200021 | 63 | 247 | 3.0 | 3.0 | 0.00 | 0.18 | 0.18 | 95 | 1008.8 |
| 20260506195518 | 63 | 148 | 2.0 | 5.0 | 0.00 | 0.18 | 0.18 | 96 | 1009.0 |
| 20260506195014 | 63 | 227 | 5.0 | 7.0 | 0.00 | 0.18 | 0.18 | 96 | 1009.0 |
| 20260506194512 | 63 | 31 | 2.0 | 2.0 | 0.00 | 0.18 | 0.18 | 96 | 1009.0 |
| 20260506194008 | 63 | 15 | 1.0 | 2.0 | 0.00 | 0.18 | 0.18 | 97 | 1009.0 |
| 20260506193505 | 63 | 215 | 2.0 | 3.0 | 0.00 | 0.18 | 0.18 | 98 | 1008.9 |
| 20260506192956 | 62 | 210 | 3.0 | 8.0 | 0.00 | 0.18 | 0.18 | 99 | 1009.1 |
| 20260506192454 | 62 | 150 | 1.0 | 2.0 | 0.00 | 0.18 | 0.18 | 99 | 1009.0 |
| 20260506191949 | 62 | 220 | 0.0 | 1.0 | 0.00 | 0.18 | 0.18 | 99 | 1009.1 |
| 20260506191447 | 61 | 248 | 5.0 | 6.0 | 0.00 | 0.18 | 0.18 | 99 | 1009.3 |
| 20260506190942 | 61 | 269 | 5.0 | 7.0 | 0.00 | 0.18 | 0.18 | 99 | 1009.0 |
| 20260506190440 | 61 | 303 | 4.0 | 5.0 | 0.00 | 0.18 | 0.18 | 99 | 1009.1 |
| 20260506185936 | 61 | 239 | 4.0 | 5.0 | 0.00 | 0.18 | 0.18 | 99 | 1009.3 |
| 20260506185434 | 61 | 210 | 2.0 | 3.0 | 0.00 | 0.18 | 0.18 | 99 | 1009.3 |
| 20260506184931 | 61 | 297 | 0.0 | 1.0 | 0.00 | 0.18 | 0.18 | 99 | 1009.4 |
| 20260506184427 | 61 | 283 | 3.0 | 3.0 | 0.00 | 0.18 | 0.18 | 99 | 1009.3 |
| 20260506183925 | 60 | 242 | 3.0 | 5.0 | 0.00 | 0.18 | 0.18 | 99 | 1009.4 |
| 20260506183420 | 61 | 222 | 2.0 | 2.0 | 0.00 | 0.18 | 0.18 | 99 | 1009.6 |
| 20260506182918 | 61 | 202 | 3.0 | 5.0 | 0.00 | 0.18 | 0.18 | 99 | 1009.7 |
| 20260506182415 | 60 | 259 | 4.0 | 5.0 | 0.00 | 0.18 | 0.18 | 99 | 1009.6 |
| 20260506181912 | 61 | 265 | 4.0 | 6.0 | 0.00 | 0.18 | 0.18 | 99 | 1009.6 |
| 20260506181410 | 61 | 296 | 6.0 | 8.0 | 0.00 | 0.18 | 0.18 | 99 | 1009.8 |
| 20260506180906 | 61 | 168 | 2.0 | 3.0 | 0.00 | 0.18 | 0.18 | 99 | 1009.7 |
| 20260506180403 | 60 | 200 | 1.0 | 2.0 | 0.00 | 0.18 | 0.18 | 99 | 1009.8 |
| 20260506175900 | 60 | 232 | 3.0 | 3.0 | 0.00 | 0.18 | 0.18 | 99 | 1009.7 |
| 20260506175356 | 60 | 334 | 2.0 | 2.0 | 0.00 | 0.18 | 0.18 | 99 | 1009.7 |
| 20260506174853 | 60 | 206 | 3.0 | 5.0 | 0.00 | 0.18 | 0.18 | 99 | 1009.8 |
| 20260506174351 | 60 | 212 | 4.0 | 5.0 | 0.00 | 0.18 | 0.18 | 99 | 1009.8 |
| 20260506173848 | 60 | 215 | 3.0 | 3.0 | 0.00 | 0.18 | 0.18 | 99 | 1009.8 |
| 20260506173344 | 60 | 292 | 1.0 | 2.0 | 0.00 | 0.18 | 0.18 | 99 | 1009.7 |
| 20260506172842 | 60 | 254 | 3.0 | 3.0 | 0.00 | 0.18 | 0.18 | 99 | 1009.7 |
| 20260506172338 | 60 | 131 | 0.0 | 1.0 | 0.00 | 0.18 | 0.18 | 99 | 1009.7 |
| 20260506171836 | 60 | 205 | 1.0 | 2.0 | 0.00 | 0.18 | 0.18 | 99 | 1009.4 |
| 20260506171332 | 60 | 256 | 5.0 | 6.0 | 0.00 | 0.18 | 0.18 | 99 | 1009.9 |
| 20260506170825 | 60 | 243 | 4.0 | 6.0 | 0.00 | 0.18 | 0.18 | 99 | 1010.0 |
| 20260506170321 | 60 | 219 | 4.0 | 9.0 | 0.00 | 0.18 | 0.18 | 99 | 1010.1 |
| 20260506165820 | 60 | 291 | 2.0 | 5.0 | 0.00 | 0.18 | 0.18 | 99 | 1010.0 |
| 20260506165317 | 60 | 194 | 1.0 | 2.0 | 0.00 | 0.18 | 0.18 | 99 | 1009.8 |
| 20260506164813 | 60 | 324 | 3.0 | 3.0 | 0.00 | 0.18 | 0.18 | 99 | 1010.0 |
| 20260506164310 | 60 | 179 | 3.0 | 3.0 | 0.00 | 0.18 | 0.18 | 99 | 1009.9 |
| 20260506163807 | 60 | 194 | 7.0 | 11.0 | 0.00 | 0.18 | 0.18 | 99 | 1009.6 |
| 20260506163302 | 60 | 204 | 3.0 | 6.0 | 0.00 | 0.18 | 0.18 | 99 | 1009.8 |
| 20260506162758 | 61 | 137 | 3.0 | 5.0 | 0.00 | 0.18 | 0.18 | 99 | 1009.7 |
| 20260506162256 | 60 | 228 | 7.0 | 10.0 | 0.00 | 0.18 | 0.18 | 99 | 1009.3 |
| 20260506161753 | 60 | 200 | 1.0 | 1.0 | 0.05 | 0.18 | 0.18 | 99 | 1009.4 |
| 20260506161250 | 60 | 167 | 5.0 | 7.0 | 0.00 | 0.17 | 0.17 | 99 | 1009.7 |
| 20260506160748 | 60 | 247 | 3.0 | 5.0 | 0.00 | 0.17 | 0.17 | 99 | 1009.9 |
| 20260506160244 | 60 | 242 | 5.0 | 7.0 | 0.00 | 0.17 | 0.17 | 99 | 1010.3 |
| 20260506155743 | 60 | 212 | 6.0 | 7.0 | 0.07 | 0.17 | 0.17 | 99 | 1010.7 |
| 20260506155239 | 60 | 183 | 0.0 | 0.0 | 0.12 | 0.17 | 0.17 | 99 | 1010.8 |
| 20260506153352 | 60 | 193 | 0.0 | 1.0 | 0.12 | 0.14 | 0.14 | 99 | 1010.6 |
| 20260506152849 | 60 | 235 | 2.0 | 2.0 | 0.12 | 0.13 | 0.13 | 99 | 1011.2 |
| 20260506152346 | 60 | 200 | 1.0 | 1.0 | 0.12 | 0.12 | 0.12 | 99 | 1011.3 |
| 20260506151845 | 60 | 267 | 1.0 | 2.0 | 0.14 | 0.11 | 0.11 | 99 | 1011.1 |
| 20260506151341 | 60 | 206 | 2.0 | 2.0 | 0.12 | 0.10 | 0.10 | 99 | 1011.2 |
| 20260506150839 | 60 | 209 | 2.0 | 2.0 | 0.05 | 0.09 | 0.09 | 99 | 1011.1 |
| 20260506150335 | 60 | 295 | 5.0 | 8.0 | 0.07 | 0.08 | 0.08 | 99 | 1011.2 |
| 20260506145832 | 60 | 192 | 3.0 | 5.0 | 0.07 | 0.08 | 0.08 | 99 | 1011.1 |
| 20260506145328 | 60 | 277 | 1.0 | 2.0 | 0.05 | 0.07 | 0.07 | 98 | 1011.0 |
| 20260506144826 | 61 | 228 | 5.0 | 6.0 | 0.05 | 0.07 | 0.07 | 98 | 1010.9 |
| 20260506144322 | 61 | 262 | 5.0 | 6.0 | 0.07 | 0.06 | 0.06 | 97 | 1010.8 |
| 20260506143821 | 61 | 178 | 1.0 | 1.0 | 0.12 | 0.06 | 0.06 | 97 | 1010.9 |
| 20260506143317 | 61 | 278 | 3.0 | 5.0 | 0.12 | 0.05 | 0.05 | 97 | 1010.9 |
| 20260506142816 | 61 | 293 | 4.0 | 7.0 | 0.12 | 0.04 | 0.04 | 96 | 1010.9 |
| 20260506142314 | 62 | 103 | 1.0 | 1.0 | 0.12 | 0.03 | 0.03 | 95 | 1010.8 |
| 20260506141812 | 62 | 220 | 5.0 | 5.0 | 0.12 | 0.02 | 0.02 | 93 | 1011.0 |
| 20260506141310 | 62 | 265 | 1.0 | 2.0 | 0.05 | 0.01 | 0.01 | 92 | 1011.2 |
| 20260506140807 | 63 | 99 | 3.0 | 5.0 | 0.00 | 0.00 | 0.00 | 91 | 1011.1 |
| 20260506140304 | 63 | 265 | 2.0 | 2.0 | 0.00 | 0.00 | 0.00 | 90 | 1010.9 |
| 20260506135801 | 64 | 278 | 3.0 | 5.0 | 0.00 | 0.00 | 0.00 | 89 | 1010.8 |
| 20260506135256 | 64 | 237 | 6.0 | 11.0 | 0.00 | 0.00 | 0.00 | 88 | 1010.8 |
| 20260506134754 | 64 | 202 | 3.0 | 3.0 | 0.00 | 0.00 | 0.00 | 87 | 1010.7 |
| 20260506134250 | 65 | 269 | 3.0 | 3.0 | 0.00 | 0.00 | 0.00 | 86 | 1010.7 |
| 20260506133747 | 64 | 256 | 4.0 | 5.0 | 0.00 | 0.00 | 0.00 | 86 | 1010.6 |
| 20260506133244 | 64 | 229 | 7.0 | 9.0 | 0.00 | 0.00 | 0.00 | 86 | 1010.9 |
| 20260506132741 | 64 | 246 | 1.0 | 2.0 | 0.00 | 0.00 | 0.00 | 87 | 1010.9 |
| 20260506132238 | 64 | 224 | 5.0 | 7.0 | 0.00 | 0.00 | 0.00 | 86 | 1011.0 |
| 20260506131736 | 64 | 251 | 4.0 | 6.0 | 0.00 | 0.00 | 0.00 | 86 | 1011.0 |
| 20260506131232 | 64 | 210 | 3.0 | 6.0 | 0.00 | 0.00 | 0.00 | 85 | 1011.0 |
| 20260506130729 | 64 | 268 | 0.0 | 1.0 | 0.00 | 0.00 | 0.00 | 85 | 1011.0 |
| 20260506130226 | 64 | 236 | 7.0 | 9.0 | 0.00 | 0.00 | 0.00 | 84 | 1011.1 |
| 20260506125724 | 65 | 246 | 3.0 | 3.0 | 0.00 | 0.00 | 0.00 | 84 | 1011.1 |
| 20260506125222 | 65 | 261 | 2.0 | 2.0 | 0.00 | 0.00 | 0.00 | 84 | 1011.2 |
| 20260506124719 | 65 | 23 | 5.0 | 7.0 | 0.00 | 0.00 | 0.00 | 83 | 1011.0 |
| 20260506124217 | 65 | 223 | 3.0 | 3.0 | 0.00 | 0.00 | 0.00 | 82 | 1011.3 |
| 20260506123714 | 66 | 239 | 4.0 | 7.0 | 0.00 | 0.00 | 0.00 | 81 | 1011.1 |
| 20260506123213 | 66 | 217 | 3.0 | 3.0 | 0.00 | 0.00 | 0.00 | 81 | 1011.3 |
| 20260506122709 | 66 | 237 | 2.0 | 3.0 | 0.00 | 0.00 | 0.00 | 81 | 1011.1 |
| 20260506122207 | 66 | 252 | 3.0 | 5.0 | 0.00 | 0.00 | 0.00 | 81 | 1011.2 |
| 20260506121704 | 66 | 223 | 4.0 | 5.0 | 0.00 | 0.00 | 0.00 | 81 | 1011.1 |
| 20260506121200 | 66 | 337 | 4.0 | 6.0 | 0.00 | 0.00 | 0.00 | 81 | 1010.8 |
| 20260506120658 | 66 | 298 | 3.0 | 3.0 | 0.00 | 0.00 | 0.00 | 81 | 1010.7 |
| 20260506120155 | 66 | 295 | 2.0 | 2.0 | 0.00 | 0.00 | 0.00 | 81 | 1010.9 |
| 20260506115654 | 65 | 184 | 2.0 | 3.0 | 0.00 | 0.00 | 0.00 | 81 | 1010.9 |
| 20260506115152 | 66 | 67 | 1.0 | 2.0 | 0.00 | 0.00 | 0.00 | 81 | 1010.8 |
| 20260506114649 | 65 | 249 | 3.0 | 6.0 | 0.00 | 0.00 | 0.00 | 81 | 1010.8 |
| 20260506114147 | 65 | 190 | 1.0 | 2.0 | 0.00 | 0.00 | 0.00 | 81 | 1011.0 |
| 20260506113645 | 65 | 232 | 0.0 | 1.0 | 0.00 | 0.00 | 0.00 | 81 | 1010.8 |
| 20260506113142 | 65 | 74 | 1.0 | 2.0 | 0.00 | 0.00 | 0.00 | 81 | 1010.7 |
| 20260506112638 | 65 | 244 | 5.0 | 7.0 | 0.00 | 0.00 | 0.00 | 81 | 1010.5 |
| 20260506112136 | 65 | 252 | 4.0 | 6.0 | 0.00 | 0.00 | 0.00 | 81 | 1010.8 |
| 20260506111633 | 65 | 136 | 1.0 | 1.0 | 0.00 | 0.00 | 0.00 | 81 | 1010.6 |
| 20260506111131 | 65 | 209 | 4.0 | 5.0 | 0.00 | 0.00 | 0.00 | 80 | 1010.7 |
| 20260506110628 | 65 | 232 | 2.0 | 3.0 | 0.00 | 0.00 | 0.00 | 80 | 1010.7 |
| 20260506110125 | 65 | 224 | 1.0 | 1.0 | 0.00 | 0.00 | 0.00 | 80 | 1010.9 |
| 20260506105622 | 65 | 212 | 3.0 | 5.0 | 0.00 | 0.00 | 0.00 | 80 | 1010.8 |
| 20260506105119 | 66 | 289 | 3.0 | 6.0 | 0.00 | 0.00 | 0.00 | 80 | 1010.5 |
| 20260506104617 | 66 | 122 | 1.0 | 2.0 | 0.00 | 0.00 | 0.00 | 80 | 1010.4 |
| 20260506104114 | 65 | 252 | 2.0 | 3.0 | 0.00 | 0.00 | 0.00 | 80 | 1010.5 |
| 20260506103611 | 66 | 128 | 3.0 | 3.0 | 0.00 | 0.00 | 0.00 | 79 | 1010.5 |
| 20260506103108 | 66 | 245 | 6.0 | 7.0 | 0.00 | 0.00 | 0.00 | 80 | 1010.3 |
| 20260506102606 | 66 | 238 | 3.0 | 6.0 | 0.00 | 0.00 | 0.00 | 79 | 1010.2 |
| 20260506102103 | 66 | 246 | 2.0 | 3.0 | 0.00 | 0.00 | 0.00 | 79 | 1010.5 |
| 20260506101600 | 66 | 121 | 1.0 | 1.0 | 0.00 | 0.00 | 0.00 | 80 | 1010.3 |
| 20260506101057 | 65 | 216 | 0.0 | 0.0 | 0.00 | 0.00 | 0.00 | 80 | 1010.3 |
| 20260506100555 | 66 | 241 | 3.0 | 3.0 | 0.00 | 0.00 | 0.00 | 80 | 1010.4 |
| 20260506100053 | 66 | 23 | 1.0 | 1.0 | 0.00 | 0.00 | 0.00 | 79 | 1010.3 |
| 20260506095551 | 66 | 225 | 1.0 | 3.0 | 0.00 | 0.00 | 0.00 | 80 | 1010.5 |
| 20260506095048 | 66 | 276 | 2.0 | 3.0 | 0.00 | 0.00 | 0.00 | 79 | 1010.6 |
| 20260506094545 | 66 | 225 | 2.0 | 2.0 | 0.00 | 0.00 | 0.00 | 79 | 1010.3 |
| 20260506094043 | 66 | 205 | 2.0 | 5.0 | 0.00 | 0.00 | 0.00 | 80 | 1010.4 |
| 20260506093541 | 66 | 237 | 1.0 | 2.0 | 0.00 | 0.00 | 0.00 | 79 | 1010.5 |
| 20260506093038 | 66 | 252 | 2.0 | 3.0 | 0.00 | 0.00 | 0.00 | 79 | 1010.1 |
| 20260506092536 | 66 | 162 | 0.0 | 0.0 | 0.00 | 0.00 | 0.00 | 79 | 1010.5 |
| 20260506092033 | 66 | 201 | 1.0 | 1.0 | 0.00 | 0.00 | 0.00 | 79 | 1010.2 |
| 20260506091531 | 66 | 110 | 0.0 | 1.0 | 0.00 | 0.00 | 0.00 | 79 | 1010.4 |
| 20260506091028 | 66 | 197 | 1.0 | 2.0 | 0.00 | 0.00 | 0.00 | 79 | 1010.4 |
| 20260506090526 | 66 | 233 | 1.0 | 1.0 | 0.00 | 0.00 | 0.00 | 79 | 1010.2 |
| 20260506090022 | 66 | 282 | 2.0 | 2.0 | 0.00 | 0.00 | 0.00 | 78 | 1010.4 |
| 20260506085519 | 66 | 145 | 0.0 | 1.0 | 0.00 | 0.00 | 0.00 | 78 | 1010.3 |
| 20260506085015 | 66 | 232 | 5.0 | 7.0 | 0.00 | 0.00 | 0.00 | 78 | 1010.4 |
| 20260506084512 | 66 | 159 | 0.0 | 0.0 | 0.00 | 0.00 | 0.00 | 77 | 1010.3 |
| 20260506084008 | 66 | 213 | 0.0 | 0.0 | 0.00 | 0.00 | 0.00 | 77 | 1010.3 |
| 20260506083506 | 67 | 297 | 1.0 | 1.0 | 0.00 | 0.00 | 0.00 | 77 | 1010.4 |
| 20260506083003 | 67 | 352 | 1.0 | 1.0 | 0.00 | 0.00 | 0.00 | 76 | 1010.3 |
| 20260506082500 | 67 | 231 | 5.0 | 6.0 | 0.00 | 0.00 | 0.00 | 76 | 1010.1 |
| 20260506081955 | 67 | 307 | 6.0 | 8.0 | 0.00 | 0.00 | 0.00 | 76 | 1010.3 |
| 20260506081454 | 67 | 154 | 0.0 | 0.0 | 0.00 | 0.00 | 0.00 | 76 | 1010.5 |
| 20260506080951 | 67 | 306 | 1.0 | 3.0 | 0.00 | 0.00 | 0.00 | 76 | 1010.4 |
| 20260506080448 | 67 | 186 | 3.0 | 5.0 | 0.00 | 0.00 | 0.00 | 76 | 1010.6 |
| 20260506073431 | 67 | 161 | 1.0 | 2.0 | 0.00 | 0.00 | 0.00 | 75 | 1010.6 |
| 20260506072929 | 67 | 53 | 1.0 | 2.0 | 0.00 | 0.00 | 0.00 | 74 | 1010.4 |
| 20260506072426 | 67 | 324 | 2.0 | 2.0 | 0.00 | 0.00 | 0.00 | 74 | 1010.7 |
| 20260506071924 | 67 | 241 | 4.0 | 7.0 | 0.00 | 0.00 | 0.00 | 74 | 1010.5 |
| 20260506071422 | 67 | 199 | 1.0 | 1.0 | 0.00 | 0.00 | 0.00 | 73 | 1010.8 |
| 20260506070918 | 67 | 241 | 4.0 | 6.0 | 0.00 | 0.00 | 0.00 | 73 | 1010.7 |
| 20260506070415 | 67 | 227 | 6.0 | 8.0 | 0.00 | 0.00 | 0.00 | 72 | 1011.0 |
| 20260506062353 | 67 | 219 | 2.0 | 3.0 | 0.00 | 0.00 | 0.00 | 70 | 1011.1 |
| 20260506061848 | 67 | 49 | 1.0 | 2.0 | 0.00 | 0.00 | 0.00 | 69 | 1011.3 |
| 20260506061345 | 67 | 100 | 0.0 | 0.0 | 0.00 | 0.00 | 0.00 | 69 | 1011.5 |
| 20260506060843 | 67 | 89 | 2.0 | 3.0 | 0.00 | 0.00 | 0.00 | 69 | 1011.2 |
| 20260506060341 | 67 | 108 | 1.0 | 1.0 | 0.00 | 0.00 | 0.00 | 70 | 1011.3 |
| 20260506051313 | 68 | 143 | 0.0 | 0.0 | 0.00 | 0.00 | 0.00 | 66 | 1011.7 |
| 20260506050811 | 68 | 140 | 1.0 | 2.0 | 0.00 | 0.00 | 0.00 | 66 | 1011.7 |
| 20260506050308 | 68 | 131 | 2.0 | 3.0 | 0.00 | 0.00 | 0.00 | 66 | 1011.7 |
| 20260506044758 | 68 | 112 | 0.0 | 1.0 | 0.00 | 0.00 | 0.00 | 66 | 1011.5 |
| 20260506044256 | 68 | 103 | 0.0 | 0.0 | 0.00 | 0.00 | 0.00 | 65 | 1011.7 |
| 20260506043753 | 68 | 302 | 0.0 | 1.0 | 0.00 | 0.00 | 0.00 | 65 | 1011.6 |
| 20260506043250 | 69 | 112 | 1.0 | 2.0 | 0.00 | 0.00 | 0.00 | 64 | 1011.9 |
| 20260506042749 | 69 | 119 | 1.0 | 2.0 | 0.00 | 0.00 | 0.00 | 64 | 1011.9 |
| 20260506042248 | 69 | 230 | 0.0 | 1.0 | 0.00 | 0.00 | 0.00 | 64 | 1011.7 |
| 20260506041746 | 69 | 20 | 1.0 | 1.0 | 0.00 | 0.00 | 0.00 | 63 | 1011.9 |
| 20260506041242 | 69 | 214 | 0.0 | 1.0 | 0.00 | 0.00 | 0.00 | 63 | 1011.7 |
| 20260506040739 | 69 | 248 | 1.0 | 2.0 | 0.00 | 0.00 | 0.00 | 64 | 1011.8 |
| 20260506040236 | 69 | 91 | 1.0 | 1.0 | 0.00 | 0.00 | 0.00 | 64 | 1011.7 |
| 20260506035733 | 69 | 225 | 2.0 | 6.0 | 0.00 | 0.00 | 0.00 | 63 | 1011.6 |
| 20260506035230 | 69 | 282 | 4.0 | 5.0 | 0.00 | 0.00 | 0.00 | 63 | 1011.4 |
| 20260506034727 | 69 | 72 | 1.0 | 2.0 | 0.00 | 0.00 | 0.00 | 63 | 1011.6 |
| 20260506034224 | 69 | 100 | 2.0 | 3.0 | 0.00 | 0.00 | 0.00 | 62 | 1011.6 |
| 20260506033721 | 70 | 120 | 0.0 | 0.0 | 0.00 | 0.00 | 0.00 | 61 | 1011.6 |
| 20260506033218 | 70 | 237 | 4.0 | 6.0 | 0.00 | 0.00 | 0.00 | 61 | 1011.3 |
| 20260506032715 | 70 | 234 | 2.0 | 2.0 | 0.00 | 0.00 | 0.00 | 61 | 1011.4 |
| 20260506032212 | 70 | 231 | 0.0 | 0.0 | 0.00 | 0.00 | 0.00 | 61 | 1011.3 |
| 20260506031709 | 70 | 265 | 2.0 | 2.0 | 0.00 | 0.00 | 0.00 | 61 | 1011.5 |
| 20260506031206 | 70 | 255 | 5.0 | 7.0 | 0.00 | 0.00 | 0.00 | 60 | 1011.4 |
| 20260506030704 | 70 | 269 | 3.0 | 3.0 | 0.00 | 0.00 | 0.00 | 60 | 1011.4 |
| 20260506030201 | 70 | 188 | 0.0 | 1.0 | 0.00 | 0.00 | 0.00 | 59 | 1011.4 |
| 20260506025658 | 71 | 170 | 3.0 | 3.0 | 0.00 | 0.00 | 0.00 | 59 | 1011.6 |
| 20260506025154 | 71 | 206 | 2.0 | 2.0 | 0.00 | 0.00 | 0.00 | 59 | 1011.5 |
| 20260506024652 | 70 | 230 | 5.0 | 6.0 | 0.00 | 0.00 | 0.00 | 59 | 1011.3 |
| 20260506024148 | 70 | 96 | 5.0 | 6.0 | 0.00 | 0.00 | 0.00 | 58 | 1011.4 |
| 20260506023644 | 70 | 194 | 2.0 | 2.0 | 0.00 | 0.00 | 0.00 | 58 | 1011.5 |
| 20260506023142 | 71 | 123 | 3.0 | 3.0 | 0.00 | 0.00 | 0.00 | 58 | 1011.5 |
| 20260506022639 | 71 | 158 | 0.0 | 0.0 | 0.00 | 0.00 | 0.00 | 57 | 1011.4 |
| 20260506022136 | 71 | 193 | 1.0 | 1.0 | 0.00 | 0.00 | 0.00 | 57 | 1011.7 |
| 20260506021634 | 72 | 174 | 1.0 | 1.0 | 0.00 | 0.00 | 0.00 | 56 | 1011.7 |
| 20260506021131 | 72 | 168 | 2.0 | 3.0 | 0.00 | 0.00 | 0.00 | 56 | 1011.4 |
| 20260506020628 | 72 | 216 | 2.0 | 2.0 | 0.00 | 0.00 | 0.00 | 55 | 1011.5 |
| 20260506020125 | 72 | 146 | 0.0 | 0.0 | 0.00 | 0.00 | 0.00 | 55 | 1011.7 |
| 20260506015623 | 72 | 294 | 4.0 | 7.0 | 0.00 | 0.00 | 0.00 | 55 | 1011.3 |
| 20260506015120 | 72 | 240 | 1.0 | 1.0 | 0.00 | 0.00 | 0.00 | 55 | 1011.3 |
| 20260506014617 | 72 | 234 | 5.0 | 7.0 | 0.00 | 0.00 | 0.00 | 54 | 1011.5 |
| 20260506014112 | 72 | 82 | 1.0 | 1.0 | 0.00 | 0.00 | 0.00 | 55 | 1011.5 |
| 20260506013611 | 73 | 297 | 1.0 | 2.0 | 0.00 | 0.00 | 0.00 | 53 | 1011.5 |
| 20260506013108 | 73 | 202 | 2.0 | 2.0 | 0.00 | 0.00 | 0.00 | 52 | 1011.4 |
| 20260506012604 | 73 | 284 | 3.0 | 3.0 | 0.00 | 0.00 | 0.00 | 52 | 1011.3 |
| 20260506012100 | 74 | 268 | 5.0 | 6.0 | 0.00 | 0.00 | 0.00 | 51 | 1011.3 |
| 20260506011558 | 74 | 322 | 1.0 | 3.0 | 0.00 | 0.00 | 0.00 | 51 | 1011.1 |
| 20260506011054 | 74 | 96 | 2.0 | 2.0 | 0.00 | 0.00 | 0.00 | 51 | 1010.9 |
| 20260506010553 | 74 | 180 | 1.0 | 2.0 | 0.00 | 0.00 | 0.00 | 50 | 1011.1 |
| 20260506010049 | 74 | 93 | 3.0 | 3.0 | 0.00 | 0.00 | 0.00 | 50 | 1011.0 |
| 20260506005547 | 74 | 138 | 0.0 | 0.0 | 0.00 | 0.00 | 0.00 | 50 | 1010.8 |
| 20260506005043 | 74 | 142 | 0.0 | 1.0 | 0.00 | 0.00 | 0.00 | 49 | 1011.0 |
| 20260506004541 | 75 | 305 | 2.0 | 2.0 | 0.00 | 0.00 | 0.00 | 49 | 1010.8 |
| 20260506004037 | 75 | 76 | 2.0 | 5.0 | 0.00 | 0.00 | 0.00 | 48 | 1010.7 |
| 20260506003533 | 75 | 210 | 4.0 | 6.0 | 0.00 | 0.00 | 0.00 | 47 | 1010.6 |
| 20260506003030 | 76 | 241 | 3.0 | 8.0 | 0.00 | 0.00 | 0.00 | 47 | 1010.6 |
| 20260506002526 | 76 | 259 | 3.0 | 5.0 | 0.00 | 0.00 | 0.00 | 47 | 1010.6 |
| 20260506002022 | 75 | 245 | 4.0 | 6.0 | 0.00 | 0.00 | 0.00 | 47 | 1010.7 |
| 20260506001518 | 76 | 294 | 3.0 | 3.0 | 0.00 | 0.00 | 0.00 | 47 | 1010.5 |
| 20260506001015 | 76 | 161 | 0.0 | 0.0 | 0.00 | 0.00 | 0.00 | 47 | 1010.5 |
| 20260506000513 | 76 | 273 | 2.0 | 2.0 | 0.00 | 0.00 | 0.00 | 47 | 1010.3 |
| 20260506000010 | 76 | 243 | 5.0 | 8.0 | 0.00 | 0.00 | 0.00 | 46 | 1010.3 |
| 20260505235508 | 76 | 237 | 1.0 | 1.0 | 0.00 | 0.00 | 0.00 | 46 | 1010.4 |
| 20260505235004 | 77 | 198 | 3.0 | 5.0 | 0.00 | 0.00 | 0.00 | 46 | 1010.5 |
| 20260505234502 | 77 | 202 | 3.0 | 5.0 | 0.00 | 0.00 | 0.00 | 45 | 1010.1 |
| 20260505233958 | 77 | 292 | 5.0 | 7.0 | 0.00 | 0.00 | 0.00 | 45 | 1010.3 |
| 20260505233456 | 77 | 300 | 1.0 | 1.0 | 0.00 | 0.00 | 0.00 | 45 | 1010.2 |
| 20260505232953 | 77 | 255 | 3.0 | 6.0 | 0.00 | 0.00 | 0.00 | 45 | 1010.4 |
| 20260505232451 | 77 | 148 | 4.0 | 6.0 | 0.00 | 0.00 | 0.00 | 45 | 1010.3 |
| 20260505231948 | 77 | 206 | 5.0 | 6.0 | 0.00 | 0.00 | 0.00 | 45 | 1010.2 |
| 20260505231445 | 77 | 212 | 2.0 | 3.0 | 0.00 | 0.00 | 0.00 | 45 | 1010.4 |
| 20260505230943 | 78 | 226 | 5.0 | 7.0 | 0.00 | 0.00 | 0.00 | 45 | 1010.2 |
| 20260505230441 | 78 | 241 | 4.0 | 6.0 | 0.00 | 0.00 | 0.00 | 45 | 1010.3 |
| 20260505225937 | 78 | 248 | 1.0 | 2.0 | 0.00 | 0.00 | 0.00 | 45 | 1010.2 |
| 20260505225434 | 78 | 307 | 7.0 | 9.0 | 0.00 | 0.00 | 0.00 | 44 | 1010.2 |
| 20260505224930 | 78 | 77 | 4.0 | 6.0 | 0.00 | 0.00 | 0.00 | 45 | 1010.0 |
| 20260505224427 | 78 | 221 | 1.0 | 3.0 | 0.00 | 0.00 | 0.00 | 45 | 1010.2 |
| 20260505223924 | 78 | 308 | 5.0 | 9.0 | 0.00 | 0.00 | 0.00 | 44 | 1010.1 |
| 20260505223421 | 79 | 238 | 2.0 | 6.0 | 0.00 | 0.00 | 0.00 | 44 | 1010.1 |
| 20260505222918 | 80 | 238 | 4.0 | 7.0 | 0.00 | 0.00 | 0.00 | 43 | 1009.9 |
| 20260505222414 | 80 | 265 | 4.0 | 9.0 | 0.00 | 0.00 | 0.00 | 44 | 1010.0 |
| 20260505221910 | 80 | 243 | 1.0 | 3.0 | 0.00 | 0.00 | 0.00 | 42 | 1010.2 |
| 20260505221408 | 80 | 181 | 1.0 | 1.0 | 0.00 | 0.00 | 0.00 | 43 | 1009.9 |
| 20260505220904 | 81 | 246 | 3.0 | 5.0 | 0.00 | 0.00 | 0.00 | 41 | 1009.9 |
| 20260505220401 | 81 | 306 | 5.0 | 7.0 | 0.00 | 0.00 | 0.00 | 42 | 1010.0 |
| 20260505215859 | 81 | 208 | 5.0 | 10.0 | 0.00 | 0.00 | 0.00 | 41 | 1010.0 |
| 20260505215357 | 81 | 188 | 8.0 | 10.0 | 0.00 | 0.00 | 0.00 | 40 | 1010.1 |
| 20260505214855 | 80 | 224 | 4.0 | 8.0 | 0.00 | 0.00 | 0.00 | 40 | 1009.9 |
| 20260505214352 | 80 | 181 | 5.0 | 11.0 | 0.00 | 0.00 | 0.00 | 42 | 1010.0 |
| 20260505213849 | 81 | 262 | 6.0 | 8.0 | 0.00 | 0.00 | 0.00 | 41 | 1010.2 |
| 20260505213347 | 82 | 158 | 5.0 | 9.0 | 0.00 | 0.00 | 0.00 | 40 | 1009.9 |
| 20260505212842 | 81 | 233 | 7.0 | 9.0 | 0.00 | 0.00 | 0.00 | 41 | 1009.9 |
| 20260505212340 | 81 | 228 | 7.0 | 11.0 | 0.00 | 0.00 | 0.00 | 41 | 1009.8 |
| 20260505211836 | 80 | 224 | 2.0 | 3.0 | 0.00 | 0.00 | 0.00 | 43 | 1009.7 |
| 20260505211334 | 80 | 228 | 7.0 | 8.0 | 0.00 | 0.00 | 0.00 | 42 | 1009.6 |
| 20260505210830 | 80 | 185 | 4.0 | 6.0 | 0.00 | 0.00 | 0.00 | 42 | 1009.8 |
| 20260505210327 | 80 | 260 | 3.0 | 5.0 | 0.00 | 0.00 | 0.00 | 41 | 1009.4 |
| 20260505205824 | 80 | 131 | 6.0 | 9.0 | 0.00 | 0.00 | 0.00 | 42 | 1009.8 |
| 20260505205322 | 80 | 115 | 7.0 | 13.0 | 0.00 | 0.00 | 0.00 | 42 | 1009.9 |
| 20260505204818 | 80 | 329 | 9.0 | 11.0 | 0.00 | 0.00 | 0.00 | 42 | 1010.0 |
| 20260505204317 | 80 | 277 | 2.0 | 3.0 | 0.00 | 0.00 | 0.00 | 42 | 1009.9 |
| 20260505203814 | 80 | 23 | 6.0 | 9.0 | 0.00 | 0.00 | 0.00 | 42 | 1010.0 |
| 20260505203310 | 80 | 118 | 3.0 | 3.0 | 0.00 | 0.00 | 0.00 | 42 | 1010.2 |
| 20260505202806 | 81 | 31 | 3.0 | 3.0 | 0.00 | 0.00 | 0.00 | 42 | 1009.9 |